Theta_e
319 320 321 321 321 321 321 321 322 322 322 323 323 323 323 322 321 315 308 307 306 307 308 311 310 309 309 310 309 309 316 316 315 315 315 312 312 313 311 312 313 313 315 310 312
321 322 322 321 321 321 321 321 322 322 322 322 323 323 323 322 318 314 307 306 307 307 306 310 310 309 309 309 309 313 315 315 313 313 310 310 310 310 311 311 313 312 312 313 315
322 322 322 322 322 322 321 321 321 322 322 322 322 323 323 321 315 314 308 308 309 306 307 308 307 307 308 307 307 308 314 310 309 309 307 310 309 308 310 311 311 310 313 313 312
323 323 323 323 323 322 322 321 321 321 322 322 320 321 322 317 323 314 308 309 309 310 308 306 306 307 307 308 305 308 306 307 308 307 307 308 308 309 309 310 311 312 311 309 308
323 323 323 324 324 323 322 322 322 322 321 320 320 320 320 320 322 316 308 309 309 309 305 307 307 307 308 307 307 306 307 307 307 306 306 306 308 308 308 309 309 307 306 305 304
322 322 322 321 322 323 323 323 322 322 321 319 319 318 315 324 319 314 308 310 310 308 305 305 306 306 307 308 308 307 307 307 306 308 306 307 308 307 307 308 306 305 303 301 300
323 322 322 323 322 323 322 322 323 322 321 320 319 318 310 321 319 315 311 311 309 308 306 305 305 307 307 308 307 307 308 308 308 308 309 307 310 305 308 307 306 304 302 300 298
319 320 321 321 321 322 323 322 322 321 320 319 318 314 318 320 320 318 317 313 313 311 307 306 305 306 307 306 306 307 307 310 309 309 307 308 311 307 307 307 305 303 301 299 298
315 314 317 317 317 321 321 321 321 320 318 317 315 310 321 318 316 315 317 316 308 306 306 305 305 304 305 307 308 306 309 308 309 306 308 309 310 308 307 307 305 303 301 300 298
311 311 312 311 312 319 320 320 319 318 314 311 308 315 318 320 314 308 311 310 305 305 305 305 304 305 304 307 309 308 307 306 308 308 307 309 310 307 305 305 303 302 300 299 298
311 311 311 311 314 315 318 317 315 314 309 319 317 319 316 314 313 306 310 305 306 307 308 305 306 307 306 305 305 306 306 307 306 307 307 310 308 308 305 303 303 301 300 299 298
307 309 311 311 314 315 315 317 314 308 317 311 314 313 314 314 319 316 306 308 307 310 304 306 309 307 305 304 306 306 307 308 307 306 307 308 308 307 306 303 302 300 299 298 297
310 311 312 312 313 314 313 316 311 310 313 313 312 314 315 315 318 319 307 307 308 308 306 312 310 304 306 306 307 307 307 307 309 307 304 305 307 307 305 302 300 299 297 296 295
310 311 312 313 312 313 314 315 313 310 314 310 312 313 313 314 316 315 312 309 308 315 306 307 306 305 306 307 307 309 307 308 308 306 308 304 308 306 307 306 303 301 299 296 295
307 311 311 312 312 312 312 316 310 307 303 306 310 311 313 315 310 312 312 312 317 311 309 310 307 307 308 309 307 309 307 306 305 305 305 305 306 307 306 307 307 303 300 296 294
305 309 311 312 312 312 312 315 308 310 304 306 312 314 316 314 309 309 312 310 310 309 306 309 305 306 308 306 306 305 305 304 303 305 308 308 307 307 308 307 306 303 299 296 294
305 306 311 311 312 311 313 311 313 313 307 306 310 316 315 316 312 307 313 309 314 316 315 310 310 306 305 308 304 304 307 310 310 308 309 304 305 307 305 306 306 305 300 296 292
304 305 310 311 311 311 312 312 313 309 309 308 305 314 315 311 307 304 310 307 303 305 309 311 309 306 304 310 311 305 307 309 309 308 308 304 307 307 304 303 301 300 298 295 292
304 305 309 311 310 311 312 314 312 310 309 309 305 309 311 307 308 304 308 308 306 304 310 306 306 304 303 303 305 304 306 304 307 305 306 307 305 305 303 303 301 300 297 296 292
304 306 307 310 311 309 313 313 311 309 309 309 308 307 309 307 308 306 304 305 305 304 306 306 307 304 303 303 302 305 304 307 307 309 308 307 307 310 308 306 303 302 299 295 291
304 305 306 309 308 308 311 310 310 309 309 310 310 310 307 307 308 307 307 305 304 302 303 305 307 305 303 305 306 304 305 305 306 306 308 309 314 308 307 305 305 303 299 295 291
303 304 304 307 308 305 310 311 309 310 309 310 310 312 312 308 307 307 308 306 303 303 304 305 308 306 305 302 302 302 305 306 309 307 305 306 310 303 303 302 302 301 297 293 290
303 301 303 306 308 307 308 309 309 310 310 310 311 311 310 308 310 308 307 303 303 303 304 305 306 308 306 304 303 303 303 304 306 305 307 308 311 301 300 300 300 299 295 292 289
300 303 303 302 304 307 309 309 309 308 309 309 311 310 310 310 308 308 305 303 303 306 305 306 305 310 310 308 305 305 305 304 305 307 305 308 308 306 305 302 299 296 294 292 289
300 302 300 303 305 306 306 306 309 310 308 309 310 312 310 310 307 307 304 302 301 303 302 306 306 302 302 303 303 303 304 305 306 305 307 307 307 306 304 303 301 297 292 290 289
299 301 297 300 303 304 306 306 307 308 308 309 310 311 309 311 309 308 305 303 304 302 301 301 305 299 299 301 302 303 303 303 304 305 305 304 304 303 301 298 297 295 292 291 289
298 297 299 300 303 303 304 306 305 306 305 307 308 309 310 309 308 308 306 305 304 304 303 304 305 308 310 303 303 306 304 303 304 302 302 302 303 301 300 298 297 294 292 291 288
Wind_Speed
7 5 5 5 6 8 10 11 14 16 19 21 22 24 25 27 23 6 3 5 7 11 8 5 7 7 5 3 3 2 2 3 2 2 2 6 7 2 0 2 2 2 3 10 13
9 8 7 7 7 8 10 11 14 16 19 21 22 23 25 25 19 3 2 5 10 11 6 8 5 6 3 3 3 3 2 3 2 1 2 4 2 7 5 4 1 2 10 18 20
12 11 10 9 9 9 11 11 13 16 18 20 23 23 23 20 5 0 3 6 9 8 5 4 3 3 4 3 4 1 2 5 4 3 3 2 4 2 3 3 5 3 10 17 21
14 14 13 12 12 11 11 12 13 15 18 19 22 23 20 8 6 0 2 5 6 7 6 5 4 3 3 3 2 1 2 0 1 3 2 4 2 3 5 9 11 15 14 16 17
18 17 16 14 14 14 13 13 13 14 17 18 21 21 9 4 6 2 2 3 5 5 7 3 4 2 3 2 2 1 0 4 7 10 6 1 6 3 8 11 14 17 19 17 16
22 21 18 17 16 17 15 15 13 14 13 15 19 19 4 6 3 5 3 3 3 6 4 5 2 0 4 3 2 1 3 6 5 7 3 1 0 4 7 10 16 16 16 15 17
25 24 22 17 17 18 17 16 14 12 11 12 15 15 0 12 4 6 5 1 1 2 1 2 1 1 2 2 2 1 4 6 4 3 3 2 4 6 7 11 16 15 14 14 16
18 17 15 16 13 12 14 15 11 8 9 8 11 7 6 7 9 12 11 6 5 4 2 1 1 3 2 3 4 2 2 1 3 6 4 2 2 9 5 9 13 12 11 11 13
19 19 18 18 16 10 9 10 8 6 6 7 4 2 8 6 6 6 12 4 5 4 2 2 3 3 3 3 1 5 2 1 3 5 5 8 3 3 5 8 10 9 8 8 8
14 19 20 17 16 14 10 7 6 3 2 1 0 3 6 2 3 3 5 8 2 5 3 4 4 3 2 2 3 2 2 0 4 1 7 9 11 6 5 6 7 7 6 7 8
13 14 14 15 14 13 7 5 2 2 2 7 3 4 2 6 3 1 5 6 2 3 3 2 1 4 4 3 3 3 2 3 4 6 6 8 8 2 5 5 5 4 5 6 7
13 13 12 13 12 8 8 3 1 1 5 14 13 8 13 2 4 2 7 5 3 4 4 3 5 6 5 5 4 2 1 5 6 5 6 9 10 3 2 1 1 3 4 6 7
10 11 11 11 11 11 9 6 3 2 3 5 8 7 7 12 10 13 9 3 3 4 6 5 3 7 7 4 4 3 5 4 6 3 3 6 8 5 2 4 5 4 3 3 5
9 9 10 13 9 13 6 11 3 1 4 6 4 6 5 7 6 11 15 6 4 8 6 5 2 5 3 5 6 5 10 8 5 3 3 3 7 5 3 7 9 6 4 2 4
9 9 13 19 8 8 6 16 6 3 3 2 4 4 5 10 1 3 6 6 16 7 5 3 4 4 5 6 10 5 4 4 3 3 2 3 5 3 2 7 13 9 5 2 3
13 12 15 17 6 9 11 17 5 2 9 2 5 5 7 4 1 4 3 4 3 5 1 4 2 3 5 4 6 7 3 4 3 1 6 9 9 5 4 4 1 7 6 2 3
13 14 17 15 8 14 18 9 3 6 3 5 4 5 4 5 3 4 8 6 5 7 9 3 8 3 3 3 1 2 2 3 3 3 5 2 4 12 5 6 3 7 8 4 1
13 13 15 23 12 20 19 3 6 5 5 2 4 5 5 6 3 3 8 5 3 2 4 6 3 7 4 12 3 5 6 4 5 3 6 3 7 4 1 3 3 4 6 4 1
13 12 9 26 23 25 7 8 6 6 4 5 3 4 4 3 5 3 8 7 8 9 5 4 3 1 1 3 3 4 4 0 2 1 3 4 5 5 2 6 7 8 7 4 1
15 7 5 20 23 15 8 11 5 4 1 2 7 4 7 6 5 6 7 4 4 9 2 6 2 1 2 3 4 2 7 3 1 3 6 7 11 12 5 10 12 13 10 5 1
11 2 8 21 21 3 11 11 5 4 1 1 3 3 4 6 6 5 5 1 1 4 3 5 2 2 2 5 7 3 2 2 1 2 4 8 9 4 4 3 8 10 10 8 4
4 5 13 27 7 4 9 13 3 4 3 2 1 0 4 5 4 5 6 1 3 5 7 4 3 5 4 1 2 1 5 7 4 7 4 3 12 2 3 5 5 9 10 8 6
3 1 12 18 10 5 9 16 1 4 5 6 4 3 1 4 4 3 3 2 3 3 5 5 2 2 2 0 0 4 4 2 3 1 13 7 10 4 3 5 5 10 10 9 7
3 4 3 3 2 15 11 12 13 5 2 2 4 3 2 2 2 3 2 2 2 2 4 5 3 4 7 3 3 3 5 6 6 5 9 19 18 15 10 12 10 11 11 10 7
5 3 2 9 12 12 13 6 13 10 8 7 3 4 5 5 4 4 2 2 1 1 2 4 5 3 3 2 3 1 5 8 10 14 11 26 18 19 11 11 13 14 13 11 9
5 4 0 3 14 18 10 14 19 16 8 6 3 6 4 4 4 4 4 3 4 1 2 2 4 2 2 2 1 7 8 10 13 17 12 16 24 18 14 3 6 13 14 12 10
6 4 3 5 11 10 18 13 9 11 2 5 6 4 3 3 3 3 6 3 3 6 4 3 5 2 5 0 1 10 11 16 8 10 9 10 14 3 4 6 8 12 14 13 11
Wind_Direction
253 256 269 290 313 325 333 342 342 341 342 342 346 346 348 343 343 349 30 357 355 358 354 345 359 26 56 74 54 119 76 108 155 178 33 343 346 344 167 350 22 56 95 45 65
249 258 267 279 295 311 320 329 331 333 335 336 339 340 344 341 337 317 17 358 346 348 359 24 4 4 55 34 35 69 94 137 168 270 352 319 341 337 343 12 268 25 72 55 58
251 256 264 274 286 297 307 316 322 327 329 331 336 335 340 340 332 56 5 1 357 358 1 25 9 45 61 13 23 69 135 172 171 161 323 300 303 336 341 289 16 62 64 50 59
258 259 265 270 279 287 295 305 315 322 327 333 338 337 340 348 306 323 356 9 16 24 24 25 34 52 80 77 21 94 79 122 246 173 279 257 272 260 210 68 81 82 82 69 60
254 257 264 270 275 281 286 294 303 315 324 330 340 345 1 358 256 265 274 4 23 20 37 40 42 110 106 72 10 97 24 296 286 285 246 198 250 242 48 75 81 84 76 72 68
253 255 257 263 273 278 284 287 294 298 313 324 336 345 34 293 273 266 257 321 29 38 23 41 102 123 97 100 88 308 284 286 285 287 260 284 266 152 67 104 82 78 74 69 63
245 252 256 259 266 268 274 275 278 285 296 314 329 335 69 247 249 254 263 299 16 59 42 81 97 88 135 77 2 13 330 337 19 349 25 228 74 32 110 101 91 86 81 71 57
242 239 240 246 259 277 271 262 262 270 293 306 318 319 250 260 274 260 256 265 274 251 228 286 110 102 60 101 34 47 59 19 350 345 13 282 173 42 129 106 96 92 81 70 56
260 258 255 258 259 277 267 253 235 262 282 296 326 326 267 314 281 303 234 204 141 129 128 86 76 70 49 83 5 14 179 302 310 51 12 32 283 52 113 111 107 98 86 72 55
270 269 260 266 257 253 269 222 211 247 239 311 133 323 271 327 331 312 159 163 128 126 70 43 55 70 80 132 258 173 160 181 261 341 340 315 274 119 80 116 109 99 81 61 46
255 256 256 253 245 236 228 135 115 217 177 210 192 272 258 323 311 56 145 136 96 62 152 14 94 247 239 187 130 118 132 235 267 272 314 273 282 168 119 114 117 91 62 46 36
258 243 238 232 227 219 223 177 271 360 296 235 246 258 265 308 320 325 162 173 162 184 129 89 233 243 161 163 204 152 192 252 275 264 209 281 276 192 208 86 122 109 59 31 14
233 229 221 208 198 209 216 192 174 55 276 262 211 211 212 189 220 245 166 138 152 180 198 218 231 116 154 174 204 208 218 218 245 312 233 296 266 211 159 159 149 128 116 65 25
220 219 199 174 185 187 201 203 194 36 300 262 234 255 140 137 258 233 203 150 170 220 176 245 252 174 188 220 176 252 219 230 244 216 262 339 291 226 216 222 218 200 190 97 29
224 201 195 178 160 167 189 174 166 81 270 182 163 145 155 173 123 31 194 178 216 175 160 241 177 161 193 227 178 231 177 175 166 201 265 209 259 113 168 246 235 215 203 149 40
218 207 192 189 178 175 171 166 125 98 243 181 139 156 144 216 354 126 121 72 149 150 179 231 247 203 181 145 172 146 104 65 72 177 257 231 226 290 197 212 193 198 190 152 22
216 233 202 187 196 169 165 131 146 209 15 190 183 159 164 163 203 149 154 154 157 166 211 196 227 222 156 166 125 114 109 301 261 201 267 140 224 264 237 215 240 203 182 170 47
229 233 219 198 198 167 161 131 200 198 205 310 131 125 177 152 201 133 143 162 200 138 134 185 209 177 178 213 186 178 184 192 247 246 287 166 245 253 218 155 121 130 160 162 59
229 231 215 202 195 170 162 190 214 184 191 190 126 147 200 190 146 155 175 189 199 184 169 146 261 167 151 139 157 156 191 161 252 86 281 255 264 248 193 217 209 202 192 192 75
203 208 228 192 192 166 192 209 223 202 225 209 194 169 182 185 150 177 182 192 207 189 169 186 144 358 120 107 69 181 142 142 90 255 267 273 286 266 234 246 225 224 215 191 147
188 196 202 192 162 187 203 217 201 197 138 8 205 156 183 169 181 184 186 101 359 143 96 147 149 168 142 209 180 146 186 78 175 199 267 285 276 188 221 251 229 219 198 186 175
188 180 176 167 179 181 200 222 205 188 176 252 323 134 157 152 154 188 205 89 336 152 162 185 135 180 187 75 339 274 205 181 206 243 231 270 265 132 231 268 223 188 179 170 163
196 142 184 182 183 180 198 218 208 202 180 178 220 236 199 159 124 158 144 66 20 140 155 186 177 171 215 106 11 231 192 144 98 64 252 258 263 148 173 199 208 184 177 171 162
139 184 149 192 216 206 193 199 213 199 263 180 201 151 124 182 15 146 127 32 25 113 97 111 129 189 248 189 133 204 197 195 204 243 270 253 276 269 262 240 210 199 183 171 166
177 206 204 196 199 216 196 181 197 202 205 185 205 193 166 190 149 162 155 110 54 131 79 156 195 152 225 135 167 227 225 195 210 238 243 273 272 284 279 258 228 198 171 168 169
160 174 130 175 193 202 200 211 207 201 170 191 182 183 177 174 179 171 124 192 210 86 100 18 143 132 284 228 223 266 241 233 230 249 262 265 279 277 290 258 182 178 168 171 170
159 126 137 162 174 186 215 211 187 182 202 156 168 126 176 214 175 197 200 196 179 160 149 139 143 119 270 13 76 273 234 222 238 238 233 246 266 234 252 238 196 172 172 169 168